When you browse on this site, cookies collect data to enhance your experience and personalize the content and advertising you see.
Visit our Privacy Policy to learn more. By continuing to use the site, you agree to this use of cookies and data.
  • In Hungary
  • List of Countries
  • For 7 days
  • Water Temperature
  • Satellite Maps
  • Weather Map
  • News
  • Weather Widgets
  • user-avatar
    Login

    Hourly Weather Novotroickoe

    Today, 18 November, Sunday

    Time Temperature Precipitation Wind Pressure Humidity
    00:00 +1°C° 0 mm 3 mps 772 mmHg 81%
    01:00 +2°C° 0 mm 2 mps 772 mmHg 83%
    02:00 +2°C° 0 mm 2 mps 772 mmHg 85%
    03:00 +1°C° 0 mm 2 mps 771 mmHg 85%
    04:00 +1°C° 0 mm 2 mps 771 mmHg 86%
    05:00 +1°C° 0 mm 2 mps 771 mmHg 86%
    06:00 +1°C° 0 mm 2 mps 771 mmHg 84%
    07:00 +1°C° 0 mm 2 mps 770 mmHg 82%
    08:00 +2°C° 0 mm 2 mps 770 mmHg 80%
    09:00 +3°C° 0 mm 1 mps 770 mmHg 76%
    10:00 +4°C° 0 mm 1 mps 770 mmHg 71%
    11:00 +4°C° 0 mm 0 mps 770 mmHg 67%
    12:00 +4°C° 0 mm 0 mps 769 mmHg 66%
    13:00 +5°C° 0 mm 0 mps 769 mmHg 65%
    14:00 +6°C° 0 mm 1 mps 768 mmHg 64%
    15:00 +5°C° 0 mm 0 mps 768 mmHg 66%
    16:00 +4°C° 0 mm 0 mps 768 mmHg 67%
    17:00 +4°C° 0 mm 0 mps 768 mmHg 69%
    18:00 +5°C° 0 mm 1 mps 768 mmHg 71%
    19:00 +5°C° 0 mm 1 mps 768 mmHg 72%
    20:00 +4°C° 0 mm 1 mps 767 mmHg 74%
    21:00 +3°C° 0 mm 2 mps 767 mmHg 76%
    22:00 +3°C° 0 mm 2 mps 767 mmHg 77%
    23:00 +2°C° 0 mm 3 mps 767 mmHg 79%

    Tomorrow, 19 November, Monday

    Time Temperature Precipitation Wind Pressure Humidity
    00:00 +2°C° 0 mm 3 mps 767 mmHg 80%
    01:00 +1°C° 0 mm 4 mps 766 mmHg 81%
    02:00 +1°C° 0 mm 4 mps 766 mmHg 82%
    03:00 +1°C° 0 mm 4 mps 766 mmHg 83%
    04:00 +1°C° 0 mm 5 mps 765 mmHg 84%
    05:00 +2°C° 0 mm 5 mps 765 mmHg 85%
    06:00 +2°C° 0 mm 6 mps 765 mmHg 85%
    07:00 +2°C° 0 mm 6 mps 765 mmHg 85%
    08:00 +3°C° 0 mm 6 mps 765 mmHg 84%
    09:00 +3°C° 0.6 mm 7 mps 764 mmHg 84%
    10:00 +4°C° 0.6 mm 8 mps 764 mmHg 83%
    11:00 +4°C° 0.6 mm 8 mps 764 mmHg 83%
    12:00 +3°C° 2.2 mm 9 mps 763 mmHg 84%
    13:00 +3°C° 2.2 mm 9 mps 762 mmHg 85%
    14:00 +2°C° 2.2 mm 10 mps 762 mmHg 86%
    15:00 +3°C° 1.3 mm 10 mps 761 mmHg 87%
    16:00 +3°C° 1.3 mm 10 mps 760 mmHg 89%
    17:00 +5°C° 1.3 mm 10 mps 760 mmHg 90%
    18:00 +6°C° 0.7 mm 10 mps 759 mmHg 89%
    19:00 +6°C° 0.7 mm 10 mps 758 mmHg 89%
    20:00 +7°C° 0.7 mm 9 mps 758 mmHg 89%
    21:00 +7°C° 0.2 mm 9 mps 758 mmHg 89%
    22:00 +9°C° 0.2 mm 8 mps 757 mmHg 90%
    23:00 +9°C° 0.2 mm 8 mps 757 mmHg 90%

    Day after tomorrow, 20 November, Tuesday

    Time Temperature Precipitation Wind Pressure Humidity
    00:00 +9°C° 0 mm 8 mps 757 mmHg 90%
    01:00 +8°C° 0 mm 9 mps 757 mmHg 89%
    02:00 +7°C° 0 mm 9 mps 758 mmHg 88%
    03:00 +7°C° 0 mm 10 mps 758 mmHg 87%
    04:00 +6°C° 0 mm 10 mps 758 mmHg 86%
    05:00 +4°C° 0 mm 11 mps 759 mmHg 85%
    06:00 +4°C° 0 mm 11 mps 759 mmHg 84%
    07:00 +4°C° 0 mm 11 mps 760 mmHg 84%
    08:00 +3°C° 0 mm 11 mps 761 mmHg 84%
    09:00 +3°C° 0 mm 10 mps 761 mmHg 82%
    10:00 +3°C° 0 mm 9 mps 762 mmHg 80%
    11:00 +3°C° 0 mm 9 mps 763 mmHg 78%
    12:00 +4°C° 0 mm 8 mps 763 mmHg 77%
    13:00 +4°C° 0 mm 7 mps 763 mmHg 75%
    14:00 +5°C° 0 mm 7 mps 764 mmHg 74%
    15:00 +4°C° 0 mm 6 mps 764 mmHg 75%
    16:00 +4°C° 0 mm 6 mps 764 mmHg 76%
    17:00 +3°C° 0 mm 5 mps 765 mmHg 78%
    18:00 +4°C° 0 mm 4 mps 765 mmHg 80%
    19:00 +4°C° 0 mm 4 mps 765 mmHg 82%
    20:00 +3°C° 0 mm 4 mps 766 mmHg 84%
    21:00 +3°C° 0 mm 3 mps 766 mmHg 85%
    22:00 +2°C° 0 mm 3 mps 766 mmHg 86%
    23:00 +3°C° 0 mm 2 mps 766 mmHg 88%

    21 November, Wednesday

    Time Temperature Precipitation Wind Pressure Humidity
    00:00 +3°C° 0 mm 2 mps 766 mmHg 89%
    01:00 +2°C° 0 mm 2 mps 766 mmHg 90%
    02:00 +2°C° 0 mm 2 mps 765 mmHg 92%
    03:00 +2°C° 0 mm 2 mps 765 mmHg 92%
    04:00 +2°C° 0 mm 2 mps 765 mmHg 92%
    05:00 +2°C° 0 mm 2 mps 765 mmHg 92%
    06:00 +1°C° 0 mm 3 mps 765 mmHg 90%
    07:00 +2°C° 0 mm 3 mps 765 mmHg 88%
    08:00 +2°C° 0 mm 3 mps 765 mmHg 86%
    09:00 +3°C° 0 mm 3 mps 765 mmHg 83%
    10:00 +3°C° 0 mm 3 mps 765 mmHg 80%
    11:00 +4°C° 0 mm 3 mps 765 mmHg 77%
    12:00 +5°C° 0 mm 4 mps 765 mmHg 75%
    13:00 +5°C° 0 mm 4 mps 764 mmHg 73%
    14:00 +5°C° 0 mm 4 mps 764 mmHg 71%
    15:00 +5°C° 0 mm 5 mps 764 mmHg 73%
    16:00 +5°C° 0 mm 5 mps 764 mmHg 74%
    17:00 +5°C° 0 mm 5 mps 764 mmHg 75%
    18:00 +3°C° 0.1 mm 5 mps 764 mmHg 77%
    19:00 +3°C° 0.1 mm 5 mps 764 mmHg 78%
    20:00 +3°C° 0.1 mm 6 mps 764 mmHg 79%
    21:00 +3°C° 0.1 mm 6 mps 764 mmHg 79%
    22:00 +2°C° 0.1 mm 6 mps 764 mmHg 80%
    23:00 +2°C° 0.1 mm 6 mps 764 mmHg 81%

    22 November, Thursday

    Time Temperature Precipitation Wind Pressure Humidity
    00:00 +2°C° 0.1 mm 6 mps 764 mmHg 81%
    01:00 +2°C° 0.1 mm 6 mps 764 mmHg 82%
    02:00 +2°C° 0.1 mm 6 mps 763 mmHg 82%
    03:00 +2°C° 0 mm 6 mps 764 mmHg 82%
    04:00 +2°C° 0 mm 7 mps 764 mmHg 81%
    05:00 +2°C° 0 mm 7 mps 764 mmHg 81%
    06:00 +2°C° 0 mm 7 mps 764 mmHg 80%
    07:00 +2°C° 0 mm 7 mps 764 mmHg 79%
    08:00 0°C° 0 mm 7 mps 764 mmHg 78%
    09:00 +2°C° 0 mm 7 mps 765 mmHg 74%
    10:00 +2°C° 0 mm 7 mps 765 mmHg 71%
    11:00 +3°C° 0 mm 7 mps 765 mmHg 67%
    12:00 +3°C° 0 mm 7 mps 765 mmHg 65%
    13:00 +3°C° 0 mm 7 mps 765 mmHg 63%
    14:00 +4°C° 0 mm 6 mps 765 mmHg 61%
    15:00 +3°C° 0 mm 6 mps 765 mmHg 62%
    16:00 +2°C° 0 mm 6 mps 766 mmHg 63%
    17:00 +2°C° 0 mm 6 mps 766 mmHg 64%
    18:00 +1°C° 0 mm 6 mps 767 mmHg 64%
    19:00 -1°C° 0 mm 6 mps 767 mmHg 65%
    20:00 -1°C° 0 mm 6 mps 767 mmHg 66%
    21:00 -2°C° 0 mm 6 mps 768 mmHg 68%
    22:00 -2°C° 0 mm 6 mps 768 mmHg 71%
    23:00 -3°C° 0 mm 6 mps 768 mmHg 73%

    23 November, Friday

    Time Temperature Precipitation Wind Pressure Humidity
    00:00 -3°C° 0 mm 6 mps 768 mmHg 74%
    01:00 -4°C° 0 mm 6 mps 768 mmHg 75%
    02:00 -4°C° 0 mm 5 mps 769 mmHg 76%
    03:00 -4°C° 0 mm 5 mps 769 mmHg 76%
    04:00 -4°C° 0 mm 5 mps 769 mmHg 77%
    05:00 -4°C° 0 mm 5 mps 769 mmHg 77%
    06:00 -4°C° 0 mm 5 mps 770 mmHg 76%
    07:00 -4°C° 0 mm 5 mps 770 mmHg 75%
    08:00 -4°C° 0 mm 5 mps 770 mmHg 73%
    09:00 -2°C° 0 mm 5 mps 770 mmHg 68%
    10:00 -1°C° 0 mm 5 mps 770 mmHg 62%
    11:00 0°C° 0 mm 5 mps 771 mmHg 56%
    12:00 +1°C° 0 mm 5 mps 770 mmHg 54%
    13:00 +1°C° 0 mm 5 mps 770 mmHg 52%
    14:00 +3°C° 0 mm 4 mps 770 mmHg 50%
    15:00 +1°C° 0 mm 4 mps 770 mmHg 54%
    16:00 0°C° 0 mm 4 mps 770 mmHg 58%
    17:00 -1°C° 0 mm 4 mps 770 mmHg 62%
    18:00 -1°C° 0 mm 4 mps 770 mmHg 64%
    19:00 -2°C° 0 mm 4 mps 771 mmHg 66%
    20:00 -2°C° 0 mm 4 mps 771 mmHg 68%
    21:00 -2°C° 0 mm 4 mps 771 mmHg 70%
    22:00 -1°C° 0 mm 3 mps 770 mmHg 71%
    23:00 -1°C° 0 mm 3 mps 770 mmHg 72%
    Show more